Year,Month,Day,Hour,Minute,Value (Times are PST for temperature in C)
2008,08,14,00,00,16.40
2008,08,14,00,01,16.40
2008,08,14,00,02,16.40
2008,08,14,00,03,16.30
2008,08,14,00,04,16.30
2008,08,14,00,05,16.30
2008,08,14,00,06,16.30
2008,08,14,00,07,16.30
2008,08,14,00,08,16.30
2008,08,14,00,09,16.30
2008,08,14,00,10,16.30
2008,08,14,00,11,16.30
2008,08,14,00,12,16.30
2008,08,14,00,13,16.20
2008,08,14,00,14,16.20
2008,08,14,00,15,16.20
2008,08,14,00,16,16.20
2008,08,14,00,17,16.20
2008,08,14,00,18,16.20
2008,08,14,00,19,16.20
2008,08,14,00,20,16.20
2008,08,14,00,21,16.20
2008,08,14,00,22,16.20
2008,08,14,00,23,16.20
2008,08,14,00,24,16.20
2008,08,14,00,25,16.20
2008,08,14,00,26,16.20
2008,08,14,00,27,16.20
2008,08,14,00,28,16.20
2008,08,14,00,29,16.10
2008,08,14,00,30,16.10
2008,08,14,00,31,16.10
2008,08,14,00,32,16.10
2008,08,14,00,33,16.10
2008,08,14,00,34,16.10
2008,08,14,00,35,16.00
2008,08,14,00,36,16.00
2008,08,14,00,37,16.00
2008,08,14,00,38,16.00
2008,08,14,00,39,15.90
2008,08,14,00,40,15.90
2008,08,14,00,41,15.90
2008,08,14,00,42,15.90
2008,08,14,00,43,15.90
2008,08,14,00,44,15.90
2008,08,14,00,45,15.90
2008,08,14,00,46,15.80
2008,08,14,00,47,15.80
2008,08,14,00,48,15.80
2008,08,14,00,49,15.80
2008,08,14,00,50,15.80
2008,08,14,00,51,15.80
2008,08,14,00,52,15.80
2008,08,14,00,53,15.80
2008,08,14,00,54,15.70
2008,08,14,00,55,15.70
2008,08,14,00,56,15.70
2008,08,14,00,57,15.70
2008,08,14,00,58,15.70
2008,08,14,00,59,15.70
2008,08,14,01,00,15.70
2008,08,14,01,01,15.70
2008,08,14,01,02,15.60
2008,08,14,01,03,15.60
2008,08,14,01,04,15.60
2008,08,14,01,05,15.60
2008,08,14,01,06,15.60
2008,08,14,01,07,15.60
2008,08,14,01,08,15.60
2008,08,14,01,09,15.60
2008,08,14,01,10,15.50
2008,08,14,01,11,15.50
2008,08,14,01,12,15.50
2008,08,14,01,13,15.50
2008,08,14,01,14,15.50
2008,08,14,01,15,15.40
2008,08,14,01,16,15.40
2008,08,14,01,17,15.40
2008,08,14,01,18,15.40
2008,08,14,01,19,15.40
2008,08,14,01,20,15.30
2008,08,14,01,21,15.30
2008,08,14,01,22,15.30
2008,08,14,01,23,15.30
2008,08,14,01,24,15.30
2008,08,14,01,25,15.30
2008,08,14,01,26,15.30
2008,08,14,01,27,15.20
2008,08,14,01,28,15.20
2008,08,14,01,29,15.20
2008,08,14,01,30,15.20
2008,08,14,01,31,15.20
2008,08,14,01,32,15.20
2008,08,14,01,33,15.20
2008,08,14,01,34,15.20
2008,08,14,01,35,15.10
2008,08,14,01,36,15.10
2008,08,14,01,37,15.10
2008,08,14,01,38,15.10
2008,08,14,01,39,15.10
2008,08,14,01,40,15.10
2008,08,14,01,41,15.10
2008,08,14,01,42,15.10
2008,08,14,01,43,15.10
2008,08,14,01,44,15.00
2008,08,14,01,45,15.00
2008,08,14,01,46,15.00
2008,08,14,01,47,15.00
2008,08,14,01,48,15.00
2008,08,14,01,49,15.00
2008,08,14,01,50,15.00
2008,08,14,01,51,15.00
2008,08,14,01,52,15.00
2008,08,14,01,53,15.00
2008,08,14,01,54,15.00
2008,08,14,01,55,15.00
2008,08,14,01,56,15.00
2008,08,14,01,57,15.00
2008,08,14,01,58,15.00
2008,08,14,01,59,15.00
2008,08,14,02,00,15.00
2008,08,14,02,01,15.00
2008,08,14,02,02,15.00
2008,08,14,02,03,15.00
2008,08,14,02,04,15.00
2008,08,14,02,05,15.00
2008,08,14,02,06,15.00
2008,08,14,02,07,15.00
2008,08,14,02,08,15.00
2008,08,14,02,09,15.00
2008,08,14,02,10,15.00
2008,08,14,02,11,15.00
2008,08,14,02,12,15.00
2008,08,14,02,13,15.00
2008,08,14,02,14,15.00
2008,08,14,02,15,15.00
2008,08,14,02,16,15.00
2008,08,14,02,17,15.00
2008,08,14,02,18,15.00
2008,08,14,02,19,15.00
2008,08,14,02,20,15.00
2008,08,14,02,21,15.00
2008,08,14,02,22,15.00
2008,08,14,02,23,14.90
2008,08,14,02,24,14.90
2008,08,14,02,25,14.90
2008,08,14,02,26,14.90
2008,08,14,02,27,14.90
2008,08,14,02,28,14.80
2008,08,14,02,29,14.80
2008,08,14,02,30,14.80
2008,08,14,02,31,14.80
2008,08,14,02,32,14.80
2008,08,14,02,33,14.80
2008,08,14,02,34,14.80
2008,08,14,02,35,14.80
2008,08,14,02,36,14.80
2008,08,14,02,37,14.70
2008,08,14,02,38,14.70
2008,08,14,02,39,14.70
2008,08,14,02,40,14.70
2008,08,14,02,41,14.70
2008,08,14,02,42,14.70
2008,08,14,02,43,14.70
2008,08,14,02,44,14.70
2008,08,14,02,45,14.70
2008,08,14,02,46,14.60
2008,08,14,02,47,14.60
2008,08,14,02,48,14.60
2008,08,14,02,49,14.60
2008,08,14,02,50,14.60
2008,08,14,02,51,14.60
2008,08,14,02,52,14.60
2008,08,14,02,53,14.60
2008,08,14,02,54,14.60
2008,08,14,02,55,14.60
2008,08,14,02,56,14.60
2008,08,14,02,57,14.60
2008,08,14,02,58,14.50
2008,08,14,02,59,14.50
2008,08,14,03,00,14.50
2008,08,14,03,01,14.50
2008,08,14,03,02,14.50
2008,08,14,03,03,14.50
2008,08,14,03,04,14.50
2008,08,14,03,05,14.40
2008,08,14,03,06,14.40
2008,08,14,03,07,14.40
2008,08,14,03,08,14.40
2008,08,14,03,09,14.40
2008,08,14,03,10,14.40
2008,08,14,03,11,14.40
2008,08,14,03,12,14.40
2008,08,14,03,13,14.40
2008,08,14,03,14,14.40
2008,08,14,03,15,14.40
2008,08,14,03,16,14.40
2008,08,14,03,17,14.40
2008,08,14,03,18,14.30
2008,08,14,03,19,14.40
2008,08,14,03,20,14.30
2008,08,14,03,21,14.30
2008,08,14,03,22,14.30
2008,08,14,03,23,14.30
2008,08,14,03,24,14.30
2008,08,14,03,25,14.30
2008,08,14,03,26,14.30
2008,08,14,03,27,14.30
2008,08,14,03,28,14.30
2008,08,14,03,29,14.30
2008,08,14,03,30,14.30
2008,08,14,03,31,14.30
2008,08,14,03,32,14.30
2008,08,14,03,33,14.30
2008,08,14,03,34,14.30
2008,08,14,03,35,14.30
2008,08,14,03,36,14.20
2008,08,14,03,37,14.20
2008,08,14,03,38,14.20
2008,08,14,03,39,14.20
2008,08,14,03,40,14.20
2008,08,14,03,41,14.20
2008,08,14,03,42,14.20
2008,08,14,03,43,14.20
2008,08,14,03,44,14.20
2008,08,14,03,45,14.20
2008,08,14,03,46,14.20
2008,08,14,03,47,14.20
2008,08,14,03,48,14.20
2008,08,14,03,49,14.30
2008,08,14,03,50,14.30
2008,08,14,03,51,14.30
2008,08,14,03,52,14.30
2008,08,14,03,53,14.40
2008,08,14,03,54,14.40
2008,08,14,03,55,14.40
2008,08,14,03,56,14.40
2008,08,14,03,57,14.40
2008,08,14,03,58,14.40
2008,08,14,03,59,14.40
2008,08,14,04,00,14.40
2008,08,14,04,01,14.40
2008,08,14,04,02,14.40
2008,08,14,04,03,14.40
2008,08,14,04,04,14.40
2008,08,14,04,05,14.50
2008,08,14,04,06,14.50
2008,08,14,04,07,14.50
2008,08,14,04,08,14.50
2008,08,14,04,09,14.50
2008,08,14,04,10,14.60
2008,08,14,04,11,14.60
2008,08,14,04,12,14.60
2008,08,14,04,13,14.60
2008,08,14,04,14,14.60
2008,08,14,04,15,14.60
2008,08,14,04,16,14.60
2008,08,14,04,17,14.60
2008,08,14,04,18,14.60
2008,08,14,04,19,14.60
2008,08,14,04,20,14.50
2008,08,14,04,21,14.50
2008,08,14,04,22,14.50
2008,08,14,04,23,14.40
2008,08,14,04,24,14.40
2008,08,14,04,25,14.40
2008,08,14,04,26,14.40
2008,08,14,04,27,14.40
2008,08,14,04,28,14.40
2008,08,14,04,29,14.40
2008,08,14,04,30,14.30
2008,08,14,04,31,14.30
2008,08,14,04,32,14.30
2008,08,14,04,33,14.30
2008,08,14,04,34,14.30
2008,08,14,04,35,14.30
2008,08,14,04,36,14.20
2008,08,14,04,37,14.20
2008,08,14,04,38,14.20
2008,08,14,04,39,14.20
2008,08,14,04,40,14.20
2008,08,14,04,41,14.20
2008,08,14,04,42,14.20
2008,08,14,04,43,14.20
2008,08,14,04,44,14.10
2008,08,14,04,45,14.10
2008,08,14,04,46,14.10
2008,08,14,04,47,14.10
2008,08,14,04,48,14.10
2008,08,14,04,49,14.10
2008,08,14,04,50,14.10
2008,08,14,04,51,14.10
2008,08,14,04,52,14.10
2008,08,14,04,53,14.10
2008,08,14,04,54,14.10
2008,08,14,04,55,14.10
2008,08,14,04,56,14.00
2008,08,14,04,57,14.00
2008,08,14,04,58,14.00
2008,08,14,04,59,14.00
2008,08,14,05,00,14.00
2008,08,14,05,01,14.00
2008,08,14,05,02,14.00
2008,08,14,05,03,14.00
2008,08,14,05,04,14.00
2008,08,14,05,05,13.90
2008,08,14,05,06,13.90
2008,08,14,05,07,13.90
2008,08,14,05,08,13.90
2008,08,14,05,09,13.90
2008,08,14,05,10,13.90
2008,08,14,05,11,13.90
2008,08,14,05,12,13.90
2008,08,14,05,13,13.90
2008,08,14,05,14,13.90
2008,08,14,05,15,13.90
2008,08,14,05,16,13.90
2008,08,14,05,17,13.90
2008,08,14,05,18,13.90
2008,08,14,05,19,13.90
2008,08,14,05,20,13.90
2008,08,14,05,21,13.90
2008,08,14,05,22,13.90
2008,08,14,05,23,13.90
2008,08,14,05,24,13.90
2008,08,14,05,25,13.90
2008,08,14,05,26,13.90
2008,08,14,05,27,13.90
2008,08,14,05,28,13.90
2008,08,14,05,29,13.90
2008,08,14,05,30,13.90
2008,08,14,05,31,13.90
2008,08,14,05,32,13.90
2008,08,14,05,33,13.90
2008,08,14,05,34,13.90
2008,08,14,05,35,13.90
2008,08,14,05,36,13.90
2008,08,14,05,37,13.90
2008,08,14,05,38,13.90
2008,08,14,05,39,13.90
2008,08,14,05,40,13.80
2008,08,14,05,41,13.80
2008,08,14,05,42,13.80
2008,08,14,05,43,13.80
2008,08,14,05,44,13.80
2008,08,14,05,45,13.80
2008,08,14,05,46,13.80
2008,08,14,05,47,13.80
2008,08,14,05,48,13.80
2008,08,14,05,49,13.70
2008,08,14,05,50,13.70
2008,08,14,05,51,13.70
2008,08,14,05,52,13.70
2008,08,14,05,53,13.70
2008,08,14,05,54,13.70
2008,08,14,05,55,13.70
2008,08,14,05,56,13.70
2008,08,14,05,57,13.70
2008,08,14,05,58,13.70
2008,08,14,05,59,13.70
2008,08,14,06,00,13.70
2008,08,14,06,01,13.70
2008,08,14,06,02,13.70
2008,08,14,06,03,13.70
2008,08,14,06,04,13.70
2008,08,14,06,05,13.70
2008,08,14,06,06,13.70
2008,08,14,06,07,13.70
2008,08,14,06,08,13.70
2008,08,14,06,09,13.70
2008,08,14,06,10,13.70
2008,08,14,06,11,13.70
2008,08,14,06,12,13.60
2008,08,14,06,13,13.60
2008,08,14,06,14,13.60
2008,08,14,06,15,13.60
2008,08,14,06,16,13.60
2008,08,14,06,17,13.60
2008,08,14,06,18,13.60
2008,08,14,06,19,13.60
2008,08,14,06,20,13.60
2008,08,14,06,21,13.60
2008,08,14,06,22,13.60
2008,08,14,06,23,13.60
2008,08,14,06,24,13.60
2008,08,14,06,25,13.50
2008,08,14,06,26,13.50
2008,08,14,06,27,13.50
2008,08,14,06,28,13.50
2008,08,14,06,29,13.50
2008,08,14,06,30,13.50
2008,08,14,06,31,13.50
2008,08,14,06,32,13.50
2008,08,14,06,33,13.50
2008,08,14,06,34,13.50
2008,08,14,06,35,13.50
2008,08,14,06,36,13.50
2008,08,14,06,37,13.50
2008,08,14,06,38,13.50
2008,08,14,06,39,13.50
2008,08,14,06,40,13.50
2008,08,14,06,41,13.50
2008,08,14,06,42,13.50
2008,08,14,06,43,13.50
2008,08,14,06,44,13.50
2008,08,14,06,45,13.50
2008,08,14,06,46,13.50
2008,08,14,06,47,13.50
2008,08,14,06,48,13.50
2008,08,14,06,49,13.50
2008,08,14,06,50,13.50
2008,08,14,06,51,13.40
2008,08,14,06,52,13.40
2008,08,14,06,53,13.40
2008,08,14,06,54,13.40
2008,08,14,06,55,13.40
2008,08,14,06,56,13.40
2008,08,14,06,57,13.40
2008,08,14,06,58,13.40
2008,08,14,06,59,13.40
2008,08,14,07,00,13.40
2008,08,14,07,01,13.40
2008,08,14,07,02,13.40
2008,08,14,07,03,13.40
2008,08,14,07,04,13.40
2008,08,14,07,05,13.40
2008,08,14,07,06,13.40
2008,08,14,07,07,13.40
2008,08,14,07,08,13.40
2008,08,14,07,09,13.40
2008,08,14,07,10,13.40
2008,08,14,07,11,13.40
2008,08,14,07,12,13.40
2008,08,14,07,13,13.40
2008,08,14,07,14,13.40
2008,08,14,07,15,13.40
2008,08,14,07,16,13.40
2008,08,14,07,17,13.40
2008,08,14,07,18,13.40
2008,08,14,07,19,13.40
2008,08,14,07,20,13.40
2008,08,14,07,21,13.40
2008,08,14,07,22,13.40
2008,08,14,07,23,13.40
2008,08,14,07,24,13.40
2008,08,14,07,25,13.40
2008,08,14,07,26,13.40
2008,08,14,07,27,13.40
2008,08,14,07,28,13.40
2008,08,14,07,29,13.40
2008,08,14,07,30,13.50
2008,08,14,07,31,13.50
2008,08,14,07,32,13.50
2008,08,14,07,33,13.50
2008,08,14,07,34,13.50
2008,08,14,07,35,13.50
2008,08,14,07,36,13.50
2008,08,14,07,37,13.50
2008,08,14,07,38,13.50
2008,08,14,07,39,13.50
2008,08,14,07,40,13.50
2008,08,14,07,41,13.50
2008,08,14,07,42,13.60
2008,08,14,07,43,13.60
2008,08,14,07,44,13.60
2008,08,14,07,45,13.60
2008,08,14,07,46,13.60
2008,08,14,07,47,13.60
2008,08,14,07,48,13.60
2008,08,14,07,49,13.60
2008,08,14,07,50,13.70
2008,08,14,07,51,13.70
2008,08,14,07,52,13.70
2008,08,14,07,53,13.70
2008,08,14,07,54,13.70
2008,08,14,07,55,13.70
2008,08,14,07,56,13.70
2008,08,14,07,57,13.80
2008,08,14,07,58,13.80
2008,08,14,07,59,13.80
2008,08,14,08,00,13.80
2008,08,14,08,01,13.80
2008,08,14,08,02,13.80
2008,08,14,08,03,13.80
2008,08,14,08,04,13.90
2008,08,14,08,05,13.90
2008,08,14,08,06,13.90
2008,08,14,08,07,13.90
2008,08,14,08,08,13.90
2008,08,14,08,09,13.90
2008,08,14,08,10,14.00
2008,08,14,08,11,14.00
2008,08,14,08,12,14.00
2008,08,14,08,13,14.10
2008,08,14,08,14,14.10
2008,08,14,08,15,14.10
2008,08,14,08,16,14.10
2008,08,14,08,17,14.20
2008,08,14,08,18,14.20
2008,08,14,08,19,14.20
2008,08,14,08,20,14.30
2008,08,14,08,21,14.30
2008,08,14,08,22,14.30
2008,08,14,08,23,14.40
2008,08,14,08,24,14.40
2008,08,14,08,25,14.50
2008,08,14,08,26,14.50
2008,08,14,08,27,14.60
2008,08,14,08,28,14.60
2008,08,14,08,29,14.60
2008,08,14,08,30,14.70
2008,08,14,08,31,14.70
2008,08,14,08,32,14.70
2008,08,14,08,33,14.80
2008,08,14,08,34,14.80
2008,08,14,08,35,14.80
2008,08,14,08,36,14.80
2008,08,14,08,37,14.90
2008,08,14,08,38,15.00
2008,08,14,08,39,15.00
2008,08,14,08,40,15.00
2008,08,14,08,41,15.00
2008,08,14,08,42,15.00
2008,08,14,08,43,15.00
2008,08,14,08,44,15.00
2008,08,14,08,45,15.10
2008,08,14,08,46,15.20
2008,08,14,08,47,15.20
2008,08,14,08,48,15.30
2008,08,14,08,49,15.30
2008,08,14,08,50,15.40
2008,08,14,08,51,15.40
2008,08,14,08,52,15.40
2008,08,14,08,53,15.50
2008,08,14,08,54,15.50
2008,08,14,08,55,15.60
2008,08,14,08,56,15.60
2008,08,14,08,57,15.70
2008,08,14,08,58,15.70
2008,08,14,08,59,15.70
2008,08,14,09,00,15.80
2008,08,14,09,01,15.80
2008,08,14,09,02,15.90
2008,08,14,09,03,16.00
2008,08,14,09,04,16.10
2008,08,14,09,05,16.20
2008,08,14,09,06,16.20
2008,08,14,09,07,16.20
2008,08,14,09,08,16.30
2008,08,14,09,09,16.30
2008,08,14,09,10,16.40
2008,08,14,09,11,16.40
2008,08,14,09,12,16.50
2008,08,14,09,13,16.50
2008,08,14,09,14,16.60
2008,08,14,09,15,16.60
2008,08,14,09,16,16.70
2008,08,14,09,17,16.80
2008,08,14,09,18,16.80
2008,08,14,09,19,16.90
2008,08,14,09,20,16.90
2008,08,14,09,21,17.00
2008,08,14,09,22,17.00
2008,08,14,09,23,17.10
2008,08,14,09,24,17.10
2008,08,14,09,25,17.20
2008,08,14,09,26,17.30
2008,08,14,09,27,17.30
2008,08,14,09,28,17.40
2008,08,14,09,29,17.50
2008,08,14,09,30,17.60
2008,08,14,09,31,17.60
2008,08,14,09,32,17.60
2008,08,14,09,33,17.70
2008,08,14,09,34,17.70
2008,08,14,09,35,17.80
2008,08,14,09,36,17.80
2008,08,14,09,37,17.80
2008,08,14,09,38,17.90
2008,08,14,09,39,18.00
2008,08,14,09,40,18.10
2008,08,14,09,41,18.20
2008,08,14,09,42,18.30
2008,08,14,09,43,18.40
2008,08,14,09,44,18.50
2008,08,14,09,45,18.60
2008,08,14,09,46,18.70
2008,08,14,09,47,18.80
2008,08,14,09,48,18.90
2008,08,14,09,49,19.00
2008,08,14,09,50,19.10
2008,08,14,09,51,19.20
2008,08,14,09,52,19.30
2008,08,14,09,53,19.40
2008,08,14,09,54,19.40
2008,08,14,09,55,19.50
2008,08,14,09,56,19.60
2008,08,14,09,57,19.60
2008,08,14,09,58,19.70
2008,08,14,09,59,19.70
2008,08,14,10,00,19.80
2008,08,14,10,01,19.90
2008,08,14,10,02,19.90
2008,08,14,10,03,20.00
2008,08,14,10,04,20.00
2008,08,14,10,05,20.10
2008,08,14,10,06,20.20
2008,08,14,10,07,20.20
2008,08,14,10,08,20.30
2008,08,14,10,09,20.30
2008,08,14,10,10,20.40
2008,08,14,10,11,20.40
2008,08,14,10,12,20.50
2008,08,14,10,13,20.50
2008,08,14,10,14,20.60
2008,08,14,10,15,20.60
2008,08,14,10,16,20.70
2008,08,14,10,17,20.70
2008,08,14,10,18,20.70
2008,08,14,10,19,20.70
2008,08,14,10,20,20.80
2008,08,14,10,21,20.80
2008,08,14,10,22,20.80
2008,08,14,10,23,20.80
2008,08,14,10,24,20.90
2008,08,14,10,25,20.90
2008,08,14,10,26,21.00
2008,08,14,10,27,21.10
2008,08,14,10,28,21.10
2008,08,14,10,29,21.20
2008,08,14,10,30,21.20
2008,08,14,10,31,21.30
2008,08,14,10,32,21.30
2008,08,14,10,33,21.30
2008,08,14,10,34,21.40
2008,08,14,10,35,21.40
2008,08,14,10,36,21.50
2008,08,14,10,37,21.60
2008,08,14,10,38,21.60
2008,08,14,10,39,21.70
2008,08,14,10,40,21.70
2008,08,14,10,41,21.80
2008,08,14,10,42,21.80
2008,08,14,10,43,21.80
2008,08,14,10,44,21.90
2008,08,14,10,45,21.90
2008,08,14,10,46,22.00
2008,08,14,10,47,22.00
2008,08,14,10,48,22.10
2008,08,14,10,49,22.20
2008,08,14,10,50,22.20
2008,08,14,10,51,22.30
2008,08,14,10,52,22.40
2008,08,14,10,53,22.50
2008,08,14,10,54,22.60
2008,08,14,10,55,22.70
2008,08,14,10,56,22.80
2008,08,14,10,57,22.90
2008,08,14,10,58,23.00
2008,08,14,10,59,23.10
2008,08,14,11,00,23.20
2008,08,14,11,01,23.30
2008,08,14,11,02,23.40
2008,08,14,11,03,23.50
2008,08,14,11,04,23.50
2008,08,14,11,05,23.60
2008,08,14,11,06,23.60
2008,08,14,11,07,23.70
2008,08,14,11,08,23.80
2008,08,14,11,09,23.80
2008,08,14,11,10,23.90
2008,08,14,11,11,23.90
2008,08,14,11,12,24.00
2008,08,14,11,13,24.10
2008,08,14,11,14,24.10
2008,08,14,11,15,24.10
2008,08,14,11,16,24.20
2008,08,14,11,17,24.20
2008,08,14,11,18,24.30
2008,08,14,11,19,24.30
2008,08,14,11,20,24.40
2008,08,14,11,21,24.40
2008,08,14,11,22,24.50
2008,08,14,11,23,24.60
2008,08,14,11,24,24.70
2008,08,14,11,25,24.70
2008,08,14,11,26,24.80
2008,08,14,11,27,24.90
2008,08,14,11,28,24.90
2008,08,14,11,29,25.00
2008,08,14,11,30,25.10
2008,08,14,11,31,25.10
2008,08,14,11,32,25.20
2008,08,14,11,33,25.30
2008,08,14,11,34,25.30
2008,08,14,11,35,25.30
2008,08,14,11,36,25.40
2008,08,14,11,37,25.40
2008,08,14,11,38,25.40
2008,08,14,11,39,25.40
2008,08,14,11,40,25.40
2008,08,14,11,41,25.50
2008,08,14,11,42,25.60
2008,08,14,11,43,25.60
2008,08,14,11,44,25.60
2008,08,14,11,45,25.70
2008,08,14,11,46,25.70
2008,08,14,11,47,25.80
2008,08,14,11,48,25.80
2008,08,14,11,49,25.80
2008,08,14,11,50,25.90
2008,08,14,11,51,25.90
2008,08,14,11,52,25.90
2008,08,14,11,53,25.90
2008,08,14,11,54,25.90
2008,08,14,11,55,25.90
2008,08,14,11,56,25.90
2008,08,14,11,57,26.00
2008,08,14,11,58,26.10
2008,08,14,11,59,26.10
2008,08,14,12,00,26.10
2008,08,14,12,01,26.10
2008,08,14,12,02,26.10
2008,08,14,12,03,26.10
2008,08,14,12,04,26.10
2008,08,14,12,05,26.10
2008,08,14,12,06,26.10
2008,08,14,12,07,26.10
2008,08,14,12,08,26.00
2008,08,14,12,09,26.00
2008,08,14,12,10,25.90
2008,08,14,12,11,25.90
2008,08,14,12,12,25.90
2008,08,14,12,13,25.90
2008,08,14,12,14,25.90
2008,08,14,12,15,26.00
2008,08,14,12,16,26.00
2008,08,14,12,17,26.10
2008,08,14,12,18,26.20
2008,08,14,12,19,26.30
2008,08,14,12,20,26.30
2008,08,14,12,21,26.30
2008,08,14,12,22,26.30
2008,08,14,12,23,26.40
2008,08,14,12,24,26.40
2008,08,14,12,25,26.40
2008,08,14,12,26,26.40
2008,08,14,12,27,26.50
2008,08,14,12,28,26.50
2008,08,14,12,29,26.50
2008,08,14,12,30,26.60
2008,08,14,12,31,26.60
2008,08,14,12,32,26.60
2008,08,14,12,33,26.70
2008,08,14,12,34,26.70
2008,08,14,12,35,26.70
2008,08,14,12,36,26.70
2008,08,14,12,37,26.80
2008,08,14,12,38,26.80
2008,08,14,12,39,26.90
2008,08,14,12,40,26.90
2008,08,14,12,41,27.00
2008,08,14,12,42,27.10
2008,08,14,12,43,27.10
2008,08,14,12,44,27.20
2008,08,14,12,45,27.30
2008,08,14,12,46,27.30
2008,08,14,12,47,27.30
2008,08,14,12,48,27.30
2008,08,14,12,49,27.40
2008,08,14,12,50,27.40
2008,08,14,12,51,27.40
2008,08,14,12,52,27.40
2008,08,14,12,53,27.40
2008,08,14,12,54,27.40
2008,08,14,12,55,27.30
2008,08,14,12,56,27.30
2008,08,14,12,57,27.30
2008,08,14,12,58,27.30
2008,08,14,12,59,27.30
2008,08,14,13,00,27.30
2008,08,14,13,01,27.20
2008,08,14,13,02,27.20
2008,08,14,13,03,27.20
2008,08,14,13,04,27.20
2008,08,14,13,05,27.20
2008,08,14,13,06,27.20
2008,08,14,13,07,27.10
2008,08,14,13,08,27.10
2008,08,14,13,09,27.10
2008,08,14,13,10,27.10
2008,08,14,13,11,27.10
2008,08,14,13,12,27.10
2008,08,14,13,13,27.20
2008,08,14,13,14,27.20
2008,08,14,13,15,27.20
2008,08,14,13,16,27.20
2008,08,14,13,17,27.20
2008,08,14,13,18,27.20
2008,08,14,13,19,27.20
2008,08,14,13,20,27.20
2008,08,14,13,21,27.30
2008,08,14,13,22,27.30
2008,08,14,13,23,27.20
2008,08,14,13,24,27.30
2008,08,14,13,25,27.30
2008,08,14,13,26,27.40
2008,08,14,13,27,27.50
2008,08,14,13,28,27.60
2008,08,14,13,29,27.70
2008,08,14,13,30,27.80
2008,08,14,13,31,27.90
2008,08,14,13,32,28.00
2008,08,14,13,33,28.10
2008,08,14,13,34,28.20
2008,08,14,13,35,28.30
2008,08,14,13,36,28.30
2008,08,14,13,37,28.30
2008,08,14,13,38,28.20
2008,08,14,13,39,28.10
2008,08,14,13,40,28.10
2008,08,14,13,41,28.10
2008,08,14,13,42,28.20
2008,08,14,13,43,28.30
2008,08,14,13,44,28.50
2008,08,14,13,45,28.70
2008,08,14,13,46,28.80
2008,08,14,13,47,29.00
2008,08,14,13,48,29.20
2008,08,14,13,49,29.30
2008,08,14,13,50,29.20
2008,08,14,13,51,29.20
2008,08,14,13,52,29.20
2008,08,14,13,53,29.30
2008,08,14,13,54,29.40
2008,08,14,13,55,29.50
2008,08,14,13,56,29.60
2008,08,14,13,57,29.70
2008,08,14,13,58,29.70
2008,08,14,13,59,29.80
2008,08,14,14,00,29.80
2008,08,14,14,01,29.90
2008,08,14,14,02,29.90
2008,08,14,14,03,30.00
2008,08,14,14,04,30.00
2008,08,14,14,05,30.10
2008,08,14,14,06,30.20
2008,08,14,14,07,30.30
2008,08,14,14,08,30.40
2008,08,14,14,09,30.40
2008,08,14,14,10,30.50
2008,08,14,14,11,30.60
2008,08,14,14,12,30.70
2008,08,14,14,13,30.70
2008,08,14,14,14,30.80
2008,08,14,14,15,30.90
2008,08,14,14,16,30.90
2008,08,14,14,17,31.00
2008,08,14,14,18,31.00
2008,08,14,14,19,31.10
2008,08,14,14,20,31.10
2008,08,14,14,21,31.20
2008,08,14,14,22,31.30
2008,08,14,14,23,31.30
2008,08,14,14,24,31.30
2008,08,14,14,25,31.30
2008,08,14,14,26,31.30
2008,08,14,14,27,31.30
2008,08,14,14,28,31.30
2008,08,14,14,29,31.30
2008,08,14,14,30,31.30
2008,08,14,14,31,31.30
2008,08,14,14,32,31.20
2008,08,14,14,33,31.20
2008,08,14,14,34,31.20
2008,08,14,14,35,31.30
2008,08,14,14,36,31.30
2008,08,14,14,37,31.30
2008,08,14,14,38,31.40
2008,08,14,14,39,31.40
2008,08,14,14,40,31.50
2008,08,14,14,41,31.60
2008,08,14,14,42,31.70
2008,08,14,14,43,31.80
2008,08,14,14,44,31.80
2008,08,14,14,45,31.90
2008,08,14,14,46,31.90
2008,08,14,14,47,31.90
2008,08,14,14,48,31.90
2008,08,14,14,49,31.90
2008,08,14,14,50,31.90
2008,08,14,14,51,31.90
2008,08,14,14,52,31.90
2008,08,14,14,53,31.90
2008,08,14,14,54,31.90
2008,08,14,14,55,31.90
2008,08,14,14,56,32.00
2008,08,14,14,57,32.00
2008,08,14,14,58,31.90
2008,08,14,14,59,31.90
2008,08,14,15,00,31.80
2008,08,14,15,01,31.70
2008,08,14,15,02,31.70
2008,08,14,15,03,31.70
2008,08,14,15,04,31.60
2008,08,14,15,05,31.70
2008,08,14,15,06,31.70
2008,08,14,15,07,31.70
2008,08,14,15,08,31.70
2008,08,14,15,09,31.80
2008,08,14,15,10,31.90
2008,08,14,15,11,32.00
2008,08,14,15,12,32.10
2008,08,14,15,13,32.20
2008,08,14,15,14,32.30
2008,08,14,15,15,32.30
2008,08,14,15,16,32.40
2008,08,14,15,17,32.30
2008,08,14,15,18,32.30
2008,08,14,15,19,32.30
2008,08,14,15,20,32.20
2008,08,14,15,21,32.20
2008,08,14,15,22,32.20
2008,08,14,15,23,32.20
2008,08,14,15,24,32.20
2008,08,14,15,25,32.10
2008,08,14,15,26,32.10
2008,08,14,15,27,32.10
2008,08,14,15,28,32.10
2008,08,14,15,29,32.00
2008,08,14,15,30,31.90
2008,08,14,15,31,31.90
2008,08,14,15,32,31.90
2008,08,14,15,33,31.90
2008,08,14,15,34,31.80
2008,08,14,15,35,31.80
2008,08,14,15,36,31.70
2008,08,14,15,37,31.70
2008,08,14,15,38,31.60
2008,08,14,15,39,31.60
2008,08,14,15,40,31.60
2008,08,14,15,41,31.60
2008,08,14,15,42,31.70
2008,08,14,15,43,31.80
2008,08,14,15,44,31.80
2008,08,14,15,45,31.80
2008,08,14,15,46,31.90
2008,08,14,15,47,32.00
2008,08,14,15,48,32.10
2008,08,14,15,49,32.20
2008,08,14,15,50,32.20
2008,08,14,15,51,32.30
2008,08,14,15,52,32.40
2008,08,14,15,53,32.40
2008,08,14,15,54,32.50
2008,08,14,15,55,32.60
2008,08,14,15,56,32.70
2008,08,14,15,57,32.70
2008,08,14,15,58,32.70
2008,08,14,15,59,32.80
2008,08,14,16,00,32.80
2008,08,14,16,01,32.90
2008,08,14,16,02,32.90
2008,08,14,16,03,33.00
2008,08,14,16,04,33.10
2008,08,14,16,05,33.00
2008,08,14,16,06,32.80
2008,08,14,16,07,32.70
2008,08,14,16,08,32.60
2008,08,14,16,09,32.60
2008,08,14,16,10,32.60
2008,08,14,16,11,32.60
2008,08,14,16,12,32.50
2008,08,14,16,13,32.50
2008,08,14,16,14,32.40
2008,08,14,16,15,32.40
2008,08,14,16,16,32.40
2008,08,14,16,17,32.30
2008,08,14,16,18,32.30
2008,08,14,16,19,32.20
2008,08,14,16,20,32.20
2008,08,14,16,21,32.20
2008,08,14,16,22,32.20
2008,08,14,16,23,32.10
2008,08,14,16,24,32.10
2008,08,14,16,25,32.10
2008,08,14,16,26,32.10
2008,08,14,16,27,32.10
2008,08,14,16,28,32.00
2008,08,14,16,29,31.90
2008,08,14,16,30,31.80
2008,08,14,16,31,31.80
2008,08,14,16,32,31.80
2008,08,14,16,33,31.80
2008,08,14,16,34,31.80
2008,08,14,16,35,31.80
2008,08,14,16,36,31.80
2008,08,14,16,37,31.80
2008,08,14,16,38,31.80
2008,08,14,16,39,31.90
2008,08,14,16,40,31.90
2008,08,14,16,41,31.90
2008,08,14,16,42,31.90
2008,08,14,16,43,31.90
2008,08,14,16,44,32.00
2008,08,14,16,45,32.00
2008,08,14,16,46,32.00
2008,08,14,16,47,32.10
2008,08,14,16,48,32.10
2008,08,14,16,49,32.10
2008,08,14,16,50,32.10
2008,08,14,16,51,32.10
2008,08,14,16,52,32.10
2008,08,14,16,53,32.10
2008,08,14,16,54,32.20
2008,08,14,16,55,32.20
2008,08,14,16,56,32.30
2008,08,14,16,57,32.20
2008,08,14,16,58,32.30
2008,08,14,16,59,32.20
2008,08,14,17,00,32.20
2008,08,14,17,01,32.20
2008,08,14,17,02,32.20
2008,08,14,17,03,32.20
2008,08,14,17,04,32.20
2008,08,14,17,05,32.20
2008,08,14,17,06,32.20
2008,08,14,17,07,32.20
2008,08,14,17,08,32.20
2008,08,14,17,09,32.10
2008,08,14,17,10,32.10
2008,08,14,17,11,32.10
2008,08,14,17,12,32.20
2008,08,14,17,13,32.20
2008,08,14,17,14,32.20
2008,08,14,17,15,32.20
2008,08,14,17,16,32.20
2008,08,14,17,17,32.20
2008,08,14,17,18,32.20
2008,08,14,17,19,32.10